This is the latest recevied weather packets stored in our database for station/object SV3CQY. If no packets are shown the sender has not sent any weather packets the latest 10 day(s).
| Time | Temp. | Humidity | Pressure | Rain* | Wind** | Luminosity | Snow |
|---|---|---|---|---|---|---|---|
| 1777865433 | 10° C | 72% | 1018.4 hPa | 0 mm | - | - | - |
| 1777864530 | 9.44° C | 72% | 1018.4 hPa | 0 mm | - | - | - |
| 1777864210 | 8.89° C | 67% | 1018.4 hPa | 0 mm | - | - | - |
| 1777863313 | 8.89° C | 65% | 1018.5 hPa | 0 mm | - | - | - |
| 1777858813 | 9.44° C | 67% | 1018.7 hPa | 0 mm | - | - | - |
| 1777856711 | 7.22° C | 69% | 1018.6 hPa | 0 mm | - | - | - |
| 1777856112 | 7.22° C | 68% | 1018.6 hPa | 0 mm | - | - | - |
| 1777854913 | 7.78° C | 68% | 1018.6 hPa | 0 mm | - | - | - |
| 1777853108 | 7.78° C | 71% | 1018.6 hPa | 0 mm | - | - | - |
| 1777851938 | 7.22° C | 72% | 1018.8 hPa | 0 mm | - | - | - |
| 1777850133 | 7.22° C | 76% | 1019 hPa | 0 mm | - | - | - |
| 1777848009 | 7.22° C | 75% | 1019.1 hPa | 0 mm | - | - | - |
| 1777846810 | 7.22° C | 73% | 1019.1 hPa | 0 mm | - | - | - |
| 1777845629 | 7.22° C | 71% | 1019.2 hPa | 0 mm | - | - | - |
| 1777845312 | 7.22° C | 71% | 1019.1 hPa | 0 mm | - | - | - |
| 1777844732 | 7.22° C | 70% | 1019.2 hPa | 0 mm | - | - | - |
| 1777843512 | 7.78° C | 69% | 1019.2 hPa | 0 mm | - | - | - |
| 1777843212 | 7.78° C | 68% | 1019.3 hPa | 0 mm | - | - | - |
| 1777842932 | 7.78° C | 68% | 1019.2 hPa | 0 mm | - | - | - |
| 1777837814 | 9.44° C | 63% | 1019.1 hPa | 0 mm | - | - | - |
| 1777837532 | 9.44° C | 63% | 1019.2 hPa | 0 mm | - | - | - |
| 1777837210 | 9.44° C | 62% | 1019 hPa | 0 mm | - | - | - |
| 1777836641 | 9.44° C | 63% | 1019.2 hPa | 0 mm | - | - | - |
| 1777836015 | 9.44° C | 63% | 1019.1 hPa | 0 mm | - | - | - |
| 1777833310 | 9.44° C | 66% | 1018.9 hPa | 0 mm | - | - | - |
* Rain latest hour (hover to see other rain measurements)
** Current wind speed in m/s (hover to see current wind gust speed)